This demonstration page uses our WeatherBlox Daily Observations layout. Learn more.

Left ArrowRight Arrow

34.74481, -87.66753

Hourly Observations for June 10, 2019

Temp ( °F °C ) Dew Point ( °F °C ) Humidity (%) Winds ( mph kmh ) Pressure ( in mb ) Visibility ( mi km ) Precip ( " mm )
12:53 am 00:53 Clear 74 23.3 71 21.7 91 91 NW 6 9 29.91 1013 10 16 0.00 0.00
1:53 am 01:53 Clear 73 22.8 71 21.7 94 94 Calm 29.91 1013 10 16 0.00 0.00
2:53 am 02:53 Clear 73 22.8 71 21.7 94 94 NNW 3 6 29.93 1013 10 16 0.00 0.00
3:53 am 03:53 Clear 73 22.8 71 21.7 94 94 Calm 29.93 1014 10 16 0.00 0.00
5:53 am 05:53 Sunny 72 22.2 70 21.1 94 94 WNW 5 7 29.97 1015 10 16 0.00 0.00
6:53 am 06:53 Sunny 74 23.3 71 21.7 91 91 Calm 29.98 1015 10 16 0.00 0.00
7:53 am 07:53 Mostly Cloudy 77 25 71 21.7 82 82 NW 6 9 30.00 1016 10 16 0.00 0.00
8:53 am 08:53 Partly Cloudy 80 26.7 71 21.7 74 74 NNW 6 9 30.01 1016 10 16 0.00 0.00
9:53 am 09:53 Sunny 83 28.3 69 20.6 63 63 VRB 7 11 30.02 1017 10 16 0.00 0.00
10:53 am 10:53 Mostly Cloudy 87 30.6 69 20.6 55 55 NNW 9 15 30.03 1017 10 16 0.00 0.00
11:53 am 11:53 Mostly Sunny 88 31.1 67 19.4 50 50 N 8 13 30.03 1017 10 16 0.00 0.00
12:53 pm 12:53 Mostly Sunny 89 31.7 69 20.6 52 52 NNW 10 17 30.03 1017 10 16 0.00 0.00
1:53 pm 13:53 Partly Cloudy 88 31.1 69 20.6 54 54 N 8 13 30.02 1017 10 16 0.00 0.00
2:53 pm 14:53 Partly Cloudy 85 29.4 68 20 57 57 N 12 19 30.02 1017 10 16 0.00 0.00
3:53 pm 15:53 Mostly Sunny 84 28.9 67 19.4 57 57 NNW 14 22 30.03 1017 10 16 0.00 0.00
4:53 pm 16:53 Sunny 84 28.9 65 18.3 53 53 N 10 17 30.03 1017 10 16 0.00 0.00
5:53 pm 17:53 Partly Cloudy 82 27.8 64 17.8 55 55 N 10 17 30.03 1017 10 16 0.00 0.00
6:53 pm 18:53 Partly Cloudy 79 26.1 64 17.8 60 60 N 10 17 30.06 1018 10 16 0.00 0.00
7:53 pm 19:53 Sunny 76 24.4 62 16.7 62 62 N 10 17 30.07 1018 10 16 0.00 0.00
8:53 pm 20:53 Clear 74 23.3 60 15.6 62 62 N 8 13 30.09 1019 10 16 0.00 0.00
10:53 pm 22:53 Clear 70 21.1 54 12.2 57 57 N 6 9 30.12 1020 10 16 0.00 0.00
11:53 pm 23:53 Clear 68 20 53 11.7 59 59 NNW 3 6 30.13 1020 10 16 0.00 0.00

Powered by AerisWeather